Weather History for KDCA - November, 2012

Change the Weather History Date:

Tuesday, November 13, 2012

  Actual Average Record
Temperature  
Mean Temperature 52 °F 50 °F  
Max Temperature 65 °F 59 °F 80 °F (1879)
Min Temperature 38 °F 42 °F 22 °F (1911)
Degree Days  
Heating Degree Days 13 15  
Month to date heating degree days 210 165  
Since 1 July heating degree days 378 394  
Cooling Degree Days 0 0  
Month to date cooling degree days 0 0  
Year to date cooling degree days 1975 1547  
Moisture  
Dew Point 36 °F    
Average Humidity 63    
Maximum Humidity 86    
Minimum Humidity 39    
Precipitation  
Precipitation 0.50 in 0.09 in 1.76 in (1904)
Month to date precipitation 0.54 1.36  
Year to date precipitation 29.36 34.88  
Snow  
Snow 0.00 in 0.00 in 4.00 in (1904)
Month to date snowfall T 0.1  
Since 1 July snowfall T 0.1  
Snow Depth 0.00 in    
Sea Level Pressure  
Sea Level Pressure 30.37 in    
Wind  
Wind Speed 14 mph (NNW)    
Max Wind Speed 30 mph    
Max Gust Speed 35 mph    
Visibility 8 miles    
Events Rain    
T = Trace of Precipitation, MM = Missing Value Source: NWS Daily Summary

Daily Weather History Graph

Daily Weather History Graph

Search for Another Location

Airport or City:

Trip Planner

Search our weather history database for the weather conditions in past years. The results will help you decide how hot, cold, wet, or windy it might be!

Date:

Astronomy

Nov. 13, 2012 Rise Set
Actual Time 6:48 AM EST 4:55 PM EST
Civil Twilight 6:20 AM EST 5:23 PM EST
Nautical Twilight 5:48 AM EST 5:56 PM EST
Astronomical Twilight 5:17 AM EST 6:27 PM EST
Moon 6:24 AM EST (11/13) 4:47 PM EST (11/13)
Length of Visible Light 11h 03m
Length of Day
10h 06m
Waning Crescent, 0% of the Moon is Illuminated
Nov 13
Waning Crescent
Nov 13
New
Nov 20
First Quarter
Nov 28
Full
Dec 6
Last Quarter

Hourly Weather History & Observations

Time (EST) Temp. Windchill Dew Point Humidity Pressure Visibility Wind Dir Wind Speed Gust Speed Precip Events Conditions
12:43 AM 57.2 °F - 53.6 °F 88% 30.19 in 5.0 mi NNW 17.3 mph - 0.02 in Rain Heavy Rain
12:52 AM 55.0 °F - 51.1 °F 86% 30.22 in 4.0 mi NW 26.5 mph 34.5 mph 0.06 in Rain Rain
1:52 AM 48.9 °F - 45.0 °F 86% 30.23 in 6.0 mi North 18.4 mph 28.8 mph 0.18 in Rain Rain
1:59 AM 48.2 °F - 44.6 °F 87% 30.24 in 5.0 mi North 20.7 mph 31.1 mph 0.01 in Rain Rain
2:52 AM 48.9 °F - 44.1 °F 83% 30.25 in 10.0 mi NNW 15.0 mph - 0.03 in Rain Light Rain
3:52 AM 48.0 °F - 43.0 °F 83% 30.27 in 10.0 mi North 16.1 mph 27.6 mph 0.01 in   Overcast
4:52 AM 46.9 °F - 42.1 °F 83% 30.30 in 10.0 mi North 11.5 mph - N/A   Overcast
5:52 AM 45.0 °F 37.1 °F 39.9 °F 82% 30.32 in 5.0 mi North 19.6 mph 24.2 mph 0.04 in   Light Drizzle
6:52 AM 44.1 °F 38.6 °F 41.0 °F 89% 30.35 in 5.0 mi NNW 10.4 mph - 0.03 in Rain Light Rain
7:09 AM 44.6 °F 39.2 °F 41.0 °F 87% 30.36 in 2.5 mi NNW 10.4 mph - 0.00 in Rain Rain
7:24 AM 44.6 °F 38.1 °F 41.0 °F 87% 30.37 in 2.5 mi North 13.8 mph - 0.02 in Rain Light Rain
7:30 AM 44.6 °F 39.2 °F 41.0 °F 87% 30.36 in 3.0 mi North 10.4 mph - 0.04 in Rain Rain
7:41 AM 44.6 °F 38.4 °F 41.0 °F 87% 30.37 in 6.0 mi North 12.7 mph - 0.05 in Rain Light Rain
7:52 AM 44.1 °F 37.4 °F 39.9 °F 85% 30.38 in 4.0 mi North 13.8 mph - 0.05 in Rain Light Rain
8:29 AM 44.6 °F 38.1 °F 39.2 °F 81% 30.40 in 6.0 mi North 13.8 mph - 0.02 in Rain Light Rain
8:52 AM 44.1 °F 37.4 °F 39.0 °F 82% 30.40 in 6.0 mi North 13.8 mph - 0.05 in Rain Light Rain
9:52 AM 43.0 °F 35.4 °F 36.0 °F 76% 30.42 in 9.0 mi North 16.1 mph - 0.03 in Rain Light Rain
10:52 AM 45.0 °F 39.7 °F 35.1 °F 68% 30.42 in 10.0 mi North 10.4 mph - 0.02 in   Mostly Cloudy
11:52 AM 46.0 °F 40.6 °F 33.1 °F 61% 30.40 in 10.0 mi NNW 11.5 mph - N/A   Mostly Cloudy
12:52 PM 46.9 °F - 30.9 °F 54% 30.38 in 10.0 mi NNW 10.4 mph 20.7 mph N/A   Scattered Clouds
1:52 PM 50.0 °F - 30.9 °F 48% 30.36 in 10.0 mi NNW 16.1 mph - N/A   Scattered Clouds
2:52 PM 51.1 °F - 28.9 °F 43% 30.37 in 10.0 mi NNW 12.7 mph - N/A   Partly Cloudy
3:52 PM 50.0 °F - 27.0 °F 41% 30.38 in 10.0 mi NNW 12.7 mph 18.4 mph N/A   Partly Cloudy
4:52 PM 46.9 °F - 28.0 °F 48% 30.39 in 10.0 mi North 15.0 mph 19.6 mph N/A   Scattered Clouds
5:52 PM 46.0 °F 40.6 °F 28.0 °F 50% 30.43 in 10.0 mi NNW 11.5 mph - N/A   Partly Cloudy
6:52 PM 44.1 °F 37.1 °F 26.1 °F 49% 30.45 in 10.0 mi NNW 15.0 mph - N/A   Clear
7:52 PM 43.0 °F 35.7 °F 25.0 °F 49% 30.47 in 10.0 mi NNW 15.0 mph - N/A   Clear
8:52 PM 42.1 °F 34.5 °F 25.0 °F 51% 30.48 in 10.0 mi NNW 15.0 mph - N/A   Clear
9:52 PM 39.9 °F 32.1 °F 25.0 °F 55% 30.49 in 10.0 mi NNW 13.8 mph - N/A   Partly Cloudy
10:52 PM 39.9 °F 32.5 °F 25.0 °F 55% 30.49 in 10.0 mi NNW 12.7 mph - N/A   Partly Cloudy
11:52 PM 39.0 °F 31.8 °F 25.0 °F 57% 30.50 in 10.0 mi NNW 11.5 mph - N/A   Clear